N0DP Weather Reports


time (UTC)temp
F
wind
direction
speed
knots
gust
knots
rain 1hr
in
rain 24hr
in
rain mn
in
humidity
%
barometer
mb
20260502212016 67 248 3.5 11.3 0.00 0.00 0.00 36 1009.2
20260502211017 67 270 1.7 5.2 0.00 0.00 0.00 37 1009.4
20260502210016 67 225 2.6 9.6 0.00 0.00 0.00 37 1009.4
20260502205036 67 270 3.5 11.3 0.00 0.00 0.00 36 1009.7
20260502204016 67 225 1.7 11.3 0.00 0.00 0.00 39 1010.1
20260502203016 66 293 1.7 6.1 0.00 0.00 0.00 37 1010.0
20260502202016 66 270 1.7 6.1 0.00 0.00 0.00 36 1010.3
20260502201016 66 270 4.3 14.8 0.00 0.00 0.00 36 1010.8
20260502200016 65 225 0.9 6.1 0.00 0.00 0.00 36 1010.8
20260502195016 64 225 0.9 5.2 0.00 0.00 0.00 36 1011.0
20260502194016 64 225 0.9 6.1 0.00 0.00 0.00 38 1011.3
20260502193016 64 180 0.9 6.1 0.00 0.00 0.00 37 1011.2
20260502192016 63 0 1.7 8.7 0.00 0.00 0.00 38 1011.6
20260502191117 63 315 2.6 9.6 0.00 0.00 0.00 38
20260502190016 63 0 3.5 5.2 0.00 0.00 0.00 38 1011.9
20260502185016 63 0.0 0.0 0.00 0.00 0.00 38
20260502184016 64 302 2.6 0.0 0.00 0.00 0.00 38
20260502183016 64 248 1.7 3.5 0.00 0.00 0.00 38 1012.4
20260502182016 63 0 0.9 5.2 0.00 0.00 0.00 38 1012.8
20260502181017 63 338 1.7 6.1 0.00 0.00 0.00 38 1012.9
20260502164016 59 315 2.6 10.4 0.00 0.00 0.00 39 1014.5
20260502163016 59 338 1.7 9.6 0.00 0.00 0.00 41 1014.6
20260502162016 59 0 0.9 2.6 0.00 0.00 0.00 41 1014.7
20260502161016 58 338 0.9 8.7 0.00 0.00 0.00 44 1014.9
20260502152016 56 315 1.7 6.1 0.00 0.00 0.00 49 1015.4
20260502151016 55 338 1.7 8.7 0.00 0.00 0.00 54 1015.4
20260502123017 44 338 0.9 4.3 0.00 0.00 0.00 73 1015.9
20260502122038 42 0.0 0.9 0.00 0.00 0.00 79 1015.7
20260502121017 40 0.0 1.7 0.00 0.00 0.00 85 1015.8
20260502115017 36 0.0 0.0 0.00 0.00 0.00 94 1015.7
20260502114018 35 0.0 0.9 0.00 0.00 0.00 94 1015.6
20260502113038 35 0.0 0.0 0.00 0.00 0.00 94 1015.7
20260502112017 35 0.0 0.0 0.00 0.00 0.00 94 1015.6
20260502111017 35 0.0 0.0 0.00 0.00 0.00 93 1015.5
20260502110038 35 0.0 0.0 0.00 0.00 0.00 93 1015.5
20260502105018 34 0.0 0.0 0.00 0.00 0.00 93 1015.4
20260502104037 34 0.0 0.0 0.00 0.00 0.00 92 1015.5
20260502103017 34 0.0 0.0 0.00 0.00 0.00 92 1015.5
20260502102017 35 0.0 0.0 0.00 0.00 0.00 92 1015.5
20260502101017 35 0.0 0.0 0.00 0.00 0.00 91 1015.5
20260502091037 35 0.0 0.0 0.00 0.00 0.00 91 1015.3
20260502071057 34 0.0 0.0 0.00 0.00 0.00 94 1015.8
20260502070017 34 0.0 0.0 0.00 0.00 0.00 93 1015.8
20260502065017 34 0.0 0.0 0.00 0.00 0.00 93 1015.9
20260502064037 34 0.0 0.0 0.00 0.00 0.00 92 1015.9
20260502063017 34 0.0 0.0 0.00 0.00 0.00 92 1015.9
20260502062017 35 0.0 0.0 0.00 0.00 0.00 91 1015.9
20260502061017 35 0.0 0.0 0.00 0.00 0.00 91 1015.9
20260502060018 35 0.0 0.0 0.00 0.00 0.00 90 1016.0
20260502055017 35 0.0 0.0 0.00 0.00 0.00 90 1016.0
20260502054018 35 0.0 0.0 0.00 0.00 0.00 89 1016.0
20260502053017 35 0.0 0.0 0.00 0.00 0.00 89 1015.9
20260502052017 35 0.0 0.0 0.00 0.00 0.00 87 1016.0
20260502051017 36 0.0 0.0 0.00 0.00 0.00 87 1016.0
20260502050017 36 0.0 0.0 0.00 0.00 0.00 86 1016.0
20260502045017 36 0.0 0.0 0.00 0.00 0.00 85 1015.9
20260502044017 36 0.0 0.0 0.00 0.00 0.00 83 1015.9
20260502043016 37 0.0 0.0 0.00 0.00 0.00 82 1016.0
20260502042016 37 0.0 0.0 0.00 0.00 0.00 81 1015.9
20260502041017 37 0.0 0.0 0.00 0.00 0.00 80 1016.0
20260502040017 38 0.0 0.0 0.00 0.00 0.00 79 1015.9
20260502035016 38 0.0 0.0 0.00 0.00 0.00 76 1015.9
20260502034017 39 0.0 0.0 0.00 0.00 0.00 74 1016.0
20260502033017 39 0.0 0.0 0.00 0.00 0.00 74 1016.0
20260502032016 40 0.0 0.0 0.00 0.00 0.00 72 1015.9
20260502031017 40 0.0 0.0 0.00 0.00 0.00 70 1016.0
20260502030016 41 0.0 0.0 0.00 0.00 0.00 68 1016.0
20260502025016 42 0.0 0.0 0.00 0.00 0.00 65 1016.1
20260502024016 43 0.0 0.0 0.00 0.00 0.00 63 1016.0
20260502023016 43 0.0 0.0 0.00 0.00 0.00 62 1016.0
20260502022016 44 0.0 0.0 0.00 0.00 0.00 60 1016.0
20260502021016 44 0.0 0.0 0.00 0.00 0.00 60 1015.7
20260502020016 45 0.0 0.0 0.00 0.00 0.00 47 1015.7
20260502015016 46 0.0 0.0 0.00 0.00 0.00 47 1015.6
20260502014016 47 0.0 0.0 0.00 0.00 0.00 47 1015.5
20260502013016 48 0.0 0.0 0.00 0.00 0.00 47 1015.4
20260502012017 48 0.0 0.0 0.00 0.00 0.00 47 1015.3
20260502011036 49 0.0 0.0 0.00 0.00 0.00 47 1015.4
20260502010017 49 0.0 0.0 0.00 0.00 0.00 47 1015.3
20260502005021 49 0.0 0.0 0.00 0.00 0.00 47 1015.2
20260502004029 50 0.0 0.0 0.00 0.00 0.00 45 1015.3
20260502003016 50 0.0 0.0 0.00 0.00 0.00 43 1015.3
20260502002017 51 0.0 0.0 0.00 0.00 0.00 42 1015.2
20260502001016 51 0.0 0.9 0.00 0.00 0.00 41 1015.3
20260502000017 51 0.0 0.0 0.00 0.00 0.00 43 1015.3
20260501235016 52 0.0 0.0 0.00 0.00 0.00 44 1015.4
20260501234016 52 0.0 0.0 0.00 0.00 0.00 43 1015.2
20260501233016 53 0.0 1.7 0.00 0.00 0.00 44 1015.2
20260501232016 54 0.0 1.7 0.00 0.00 0.00 36 1015.3
20260501231037 54 338 0.9 8.7 0.00 0.00 0.00 43 1015.2
20260501230016 54 0 1.7 7.0 0.00 0.00 0.00 41 1015.2
20260501225036 53 338 0.9 6.1 0.00 0.00 0.00 46 1015.3
20260501224016 52 0.0 2.6 0.00 0.00 0.00 41 1015.4
20260501223016 52 0.0 1.7 0.00 0.00 0.00 42 1015.5
20260501222016 53 0.0 5.2 0.00 0.00 0.00 39 1015.5
20260501221016 53 0.0 5.2 0.00 0.00 0.00 42 1015.4
20260501220016 53 0.0 2.6 0.00 0.00 0.00 41 1015.4
20260501215036 53 0.0 2.6 0.00 0.00 0.00 43 1015.4
20260501214015 53 0.0 0.0 0.00 0.00 0.00 42 1015.4
20260501213016 53 0.0 2.6 0.00 0.00 0.00 43 1015.3